Temp
62 62 61 61 62 62 62 62 62 62 62 62 62 61 61 62 61 57 57 71 71 77 78 73 73 73 75 70 73 76 60 55 60 64 64 70 68 71 75 73 78 77 71 72 74
61 61 61 61 61 62 62 62 62 62 61 61 61 61 61 62 55 54 69 75 77 78 72 69 66 70 64 67 70 64 59 60 68 69 67 70 71 70 72 73 68 68 72 74 72
61 61 61 61 61 61 61 61 61 61 61 61 61 61 61 59 53 66 75 77 78 78 75 74 72 70 63 65 67 65 59 67 71 72 73 70 70 73 70 68 70 65 68 70 70
61 60 60 61 61 61 61 61 61 60 60 60 61 61 61 54 53 72 76 77 78 76 74 71 68 64 60 60 68 59 70 71 71 73 72 68 73 70 71 72 73 72 72 70 70
60 60 60 60 60 60 61 60 60 59 60 60 62 61 53 50 60 75 78 78 74 73 71 68 65 63 59 63 66 63 69 72 74 72 71 73 69 69 72 76 75 74 72 70 70
59 59 59 59 60 60 60 59 59 59 59 60 62 61 50 51 74 76 75 72 71 70 68 69 67 68 63 64 64 71 71 71 72 69 71 69 68 72 73 75 72 71 70 71 72
59 59 59 59 59 59 59 58 58 58 59 61 63 61 53 61 74 74 72 66 69 71 66 68 72 67 65 63 71 70 64 68 68 66 67 71 64 66 73 72 69 70 71 72 74
59 59 59 59 59 59 58 57 57 59 60 61 65 55 52 71 71 73 72 69 72 68 70 70 73 67 64 70 68 62 60 55 64 66 69 68 58 67 72 68 67 70 72 73 73
58 58 58 58 58 57 56 56 59 63 62 64 53 52 55 73 69 72 71 68 68 68 70 81 71 62 64 58 54 56 50 54 62 67 66 64 60 66 72 69 69 70 72 73 72
58 58 58 57 57 56 55 55 60 61 63 65 65 51 62 67 71 71 70 73 68 67 67 64 59 55 53 52 44 50 51 52 55 62 64 60 59 66 69 69 68 70 72 72 72
58 57 57 57 56 55 52 50 53 53 54 56 56 59 65 72 74 70 72 72 69 64 53 58 52 48 52 58 59 57 55 54 60 66 60 60 59 63 67 69 68 68 70 72 73
57 57 57 56 55 54 50 53 55 56 51 61 63 63 68 68 65 70 76 65 63 55 57 53 48 58 63 61 59 58 54 53 61 66 61 57 58 61 65 68 70 68 70 72 73
57 57 57 55 54 51 51 56 60 55 48 58 61 62 65 67 64 66 72 66 61 56 55 50 58 65 63 60 58 52 50 52 56 63 60 57 54 60 65 67 68 70 72 73 73
57 57 56 54 52 50 56 58 56 57 43 52 55 65 66 67 60 73 74 70 61 57 57 55 63 64 60 59 58 43 60 62 59 55 48 57 45 54 61 61 64 67 68 70 73
57 56 55 53 45 54 62 55 54 59 34 59 57 71 63 62 65 66 71 68 60 59 57 55 59 58 57 59 62 57 63 61 59 52 47 52 49 51 57 57 61 65 68 71 73
56 55 54 48 44 53 55 53 59 44 37 54 60 59 59 59 61 66 66 68 64 59 56 58 64 62 62 65 65 66 59 53 49 47 41 49 49 50 53 57 61 67 69 71 73
54 52 52 54 56 54 55 57 42 37 54 52 50 55 55 55 58 60 57 52 48 44 44 53 56 60 64 55 58 57 49 39 38 39 41 44 49 51 59 62 64 65 68 71 74
52 50 50 55 52 54 56 49 36 50 48 53 52 52 48 52 53 53 50 45 53 48 41 44 43 54 62 55 54 52 50 41 36 35 42 46 45 53 62 64 65 68 70 72 73
51 50 52 57 57 53 53 37 37 47 53 51 49 46 45 50 51 48 45 45 50 47 41 41 43 57 61 60 56 51 46 49 42 36 40 44 50 59 64 64 65 65 67 69 71
48 50 56 61 58 55 47 40 45 55 56 53 43 45 40 44 45 43 43 50 48 53 46 41 41 49 57 59 57 51 51 44 42 36 35 42 42 45 53 57 61 61 63 66 70
50 53 62 58 58 52 38 39 50 56 58 51 48 45 42 40 43 40 41 49 52 52 50 39 43 45 49 45 42 45 41 40 42 39 38 35 40 55 53 56 57 61 63 64 70
49 48 64 61 49 38 38 44 50 49 52 50 50 47 44 42 40 41 42 45 54 51 45 44 41 39 39 49 52 48 41 37 39 38 36 38 41 56 55 57 60 60 63 63 64
46 45 59 59 42 37 43 48 50 47 46 47 45 46 44 38 37 43 45 53 54 50 43 44 35 32 34 42 46 43 44 38 36 34 33 36 41 58 56 57 58 60 63 61 62
47 44 49 49 42 42 40 42 42 53 48 48 44 44 42 38 39 38 42 50 52 51 57 49 33 35 33 35 39 40 44 44 37 33 34 37 41 49 50 51 54 57 61 61 59
45 41 42 38 42 42 42 43 43 41 47 46 43 41 37 32 34 35 40 43 49 50 46 41 32 33 36 43 43 42 43 45 40 40 37 41 42 47 47 49 50 54 57 58 58
45 44 42 38 41 42 41 40 42 43 43 43 41 43 41 34 34 31 36 35 34 43 39 37 32 34 33 40 41 41 44 46 46 46 44 44 44 46 49 51 50 50 52 53 54
44 44 46 41 38 37 37 39 43 43 47 48 46 41 39 41 44 41 40 38 35 34 36 34 31 29 26 35 37 32 38 42 44 44 41 39 41 45 44 46 47 48 50 51 52
MSLP
1017.21 1016.86 1016.53 1016.17 1015.80 1015.43 1015.09 1014.78 1014.49 1014.20 1013.95 1013.66 1013.40 1013.31 1013.21 1013.01 1012.89 1013.00 1011.99 1009.48 1009.50 1009.53 1009.93 1010.58 1011.09 1011.17 1011.46 1011.61 1011.43 1011.24 1011.41 1011.11 1010.51 1010.17 1010.31 1010.60 1010.83 1011.16 1010.90 1011.01 1011.07 1011.64 1012.44 1013.79 1014.87
1017.14 1016.78 1016.44 1016.11 1015.72 1015.35 1014.98 1014.61 1014.31 1014.10 1013.83 1013.63 1013.30 1013.05 1013.03 1012.91 1012.87 1011.87 1008.87 1008.79 1009.01 1009.20 1009.94 1010.50 1011.14 1011.34 1011.76 1011.67 1011.46 1011.36 1011.19 1010.58 1009.98 1009.72 1009.94 1010.29 1010.51 1010.85 1010.92 1010.98 1011.95 1012.48 1013.27 1014.42 1015.23
1017.18 1016.76 1016.36 1015.92 1015.54 1015.24 1014.89 1014.47 1014.09 1013.83 1013.67 1013.44 1013.24 1012.97 1012.82 1012.78 1012.21 1008.89 1007.57 1008.38 1008.78 1009.18 1009.73 1010.31 1010.94 1011.34 1011.76 1011.73 1011.47 1011.20 1010.85 1010.13 1009.58 1009.47 1009.51 1009.93 1010.37 1010.79 1010.76 1011.12 1011.46 1012.57 1013.49 1014.53 1015.36
1017.12 1016.72 1016.30 1015.89 1015.38 1014.93 1014.61 1014.30 1013.97 1013.66 1013.42 1013.23 1013.02 1012.90 1012.73 1012.68 1010.70 1007.73 1007.50 1008.22 1008.84 1009.33 1009.90 1010.50 1011.05 1011.45 1011.77 1011.74 1011.33 1011.13 1010.19 1009.95 1009.53 1009.53 1009.74 1010.01 1010.19 1010.53 1010.54 1010.62 1011.33 1012.33 1013.14 1014.15 1015.16
1016.94 1016.50 1016.08 1015.66 1015.23 1014.77 1014.30 1014.00 1013.75 1013.46 1013.25 1012.99 1012.83 1012.80 1012.82 1011.90 1009.33 1007.67 1007.90 1008.47 1009.17 1009.58 1009.93 1010.39 1010.98 1011.37 1011.43 1011.36 1011.20 1010.96 1010.10 1009.57 1009.34 1009.56 1009.65 1009.90 1010.22 1010.40 1010.47 1010.56 1011.54 1012.79 1013.75 1014.53 1015.03
1016.79 1016.31 1015.83 1015.37 1014.92 1014.47 1014.11 1013.65 1013.37 1013.15 1012.93 1012.82 1012.66 1012.64 1012.68 1010.70 1007.71 1007.80 1008.06 1008.79 1009.20 1009.74 1010.11 1010.30 1010.67 1010.79 1011.11 1011.03 1010.85 1010.28 1010.03 1009.53 1008.91 1009.10 1009.41 1009.87 1010.28 1010.41 1010.81 1011.06 1012.13 1012.76 1013.53 1014.30 1014.73
1016.63 1016.15 1015.59 1015.08 1014.64 1014.16 1013.68 1013.35 1012.92 1012.67 1012.57 1012.42 1012.38 1012.65 1011.90 1009.02 1007.99 1008.22 1008.53 1008.94 1009.27 1009.59 1010.25 1010.27 1010.35 1010.57 1010.85 1010.78 1010.45 1010.03 1010.07 1009.39 1008.85 1009.27 1009.70 1009.74 1010.60 1010.51 1010.60 1011.33 1011.59 1013.02 1013.48 1014.07 1014.55
1016.36 1015.88 1015.37 1014.89 1014.41 1013.86 1013.32 1012.83 1012.29 1011.82 1011.97 1012.12 1012.09 1012.32 1010.37 1008.28 1008.04 1008.51 1008.65 1009.23 1009.63 1009.84 1010.02 1010.23 1010.31 1010.67 1010.85 1010.73 1010.47 1010.37 1010.30 1009.96 1009.54 1009.61 1009.87 1010.03 1010.39 1010.61 1011.10 1011.66 1011.82 1012.16 1012.94 1013.67 1014.20
1016.10 1015.60 1014.97 1014.49 1014.15 1013.61 1013.01 1012.54 1011.52 1010.85 1011.57 1011.95 1012.27 1011.87 1009.73 1007.95 1008.44 1008.22 1008.27 1008.96 1009.85 1010.26 1010.29 1010.34 1010.65 1011.04 1011.01 1011.18 1011.29 1011.12 1010.85 1010.41 1009.89 1009.96 1010.15 1010.53 1010.75 1010.88 1011.17 1011.59 1011.69 1012.31 1012.71 1013.07 1013.76
1015.76 1015.21 1014.69 1014.23 1013.88 1013.33 1012.77 1012.24 1011.61 1011.34 1011.79 1011.99 1011.76 1011.75 1009.00 1007.73 1007.18 1007.73 1008.50 1008.70 1009.61 1010.37 1010.65 1010.87 1011.31 1011.54 1011.83 1011.81 1011.83 1011.46 1011.05 1010.73 1010.32 1010.32 1010.42 1010.78 1010.77 1011.04 1011.23 1011.56 1011.81 1011.87 1012.16 1012.87 1013.28
1015.29 1014.79 1014.14 1013.67 1013.31 1013.03 1012.73 1012.19 1012.22 1011.85 1011.33 1010.41 1010.15 1009.67 1008.30 1007.42 1006.65 1007.37 1007.96 1008.63 1009.31 1010.14 1010.82 1011.09 1011.73 1011.51 1011.73 1011.65 1011.28 1011.14 1011.02 1010.91 1010.43 1010.10 1010.41 1010.63 1010.77 1010.76 1011.07 1011.57 1011.83 1012.26 1012.30 1012.63 1012.98
1014.83 1014.34 1013.71 1013.25 1013.03 1012.75 1012.63 1011.87 1010.92 1010.98 1010.49 1009.13 1009.07 1008.77 1007.94 1007.39 1007.29 1006.99 1007.38 1008.37 1009.22 1010.14 1010.74 1011.38 1011.22 1011.18 1011.21 1011.30 1011.28 1011.10 1010.99 1010.93 1010.46 1010.20 1010.60 1010.63 1010.89 1010.73 1010.94 1010.94 1011.11 1011.44 1011.96 1012.27 1012.84
1014.55 1013.90 1013.41 1013.02 1012.71 1012.69 1012.13 1010.85 1010.34 1010.51 1010.47 1008.69 1008.07 1007.79 1007.14 1007.15 1006.99 1006.80 1007.01 1007.71 1008.69 1009.80 1010.51 1010.75 1010.31 1010.48 1010.79 1010.98 1011.04 1010.95 1011.02 1011.02 1010.88 1010.49 1010.61 1010.93 1011.20 1011.10 1011.25 1011.31 1011.29 1011.42 1011.72 1012.04 1012.27
1014.11 1013.57 1013.13 1012.86 1012.73 1012.40 1011.23 1010.15 1010.19 1010.09 1010.18 1008.56 1007.43 1006.23 1006.62 1006.51 1006.56 1006.33 1006.59 1007.15 1008.33 1009.16 1010.04 1010.13 1009.71 1009.84 1010.26 1010.41 1010.59 1010.93 1010.83 1010.94 1011.23 1011.45 1011.43 1011.23 1011.75 1011.41 1011.43 1011.54 1011.44 1011.45 1011.53 1011.67 1011.89
1013.68 1013.23 1013.25 1013.36 1012.97 1012.02 1010.51 1010.03 1009.79 1009.76 1009.53 1007.75 1006.58 1005.53 1006.06 1006.49 1006.42 1006.60 1006.52 1006.89 1008.02 1008.89 1009.60 1009.65 1009.39 1009.54 1009.79 1009.87 1010.14 1010.75 1010.72 1011.13 1011.61 1012.04 1012.18 1011.77 1012.22 1011.43 1011.67 1011.59 1011.08 1011.08 1011.02 1011.16 1011.42
1013.38 1013.07 1012.86 1013.10 1012.91 1010.92 1010.14 1009.92 1009.82 1010.71 1009.35 1007.68 1006.58 1006.22 1006.66 1006.85 1006.91 1007.09 1007.18 1007.41 1008.35 1009.09 1009.40 1009.38 1008.94 1008.99 1009.12 1009.21 1009.64 1010.22 1011.13 1012.12 1012.81 1013.12 1013.25 1012.23 1012.40 1011.59 1011.70 1010.87 1010.37 1010.32 1010.27 1010.50 1010.84
1012.75 1012.35 1012.61 1012.39 1011.59 1010.56 1010.12 1010.30 1011.15 1010.87 1009.82 1009.13 1008.29 1007.49 1007.72 1008.18 1008.33 1008.36 1009.16 1009.98 1010.26 1010.52 1010.51 1009.94 1009.51 1008.87 1008.83 1009.35 1009.79 1010.57 1011.99 1013.39 1014.39 1014.42 1013.98 1012.57 1012.47 1012.07 1011.26 1010.72 1010.17 1009.78 1009.85 1009.86 1009.93
1012.15 1012.07 1012.23 1011.56 1010.81 1010.70 1010.61 1011.23 1012.05 1011.76 1010.92 1010.02 1009.62 1009.10 1009.75 1010.03 1010.28 1010.55 1011.20 1012.00 1011.72 1011.72 1011.93 1011.33 1010.75 1009.88 1009.50 1009.61 1010.00 1010.91 1011.76 1013.06 1013.95 1014.77 1014.08 1013.23 1012.31 1011.55 1011.18 1010.42 1009.93 1009.30 1009.25 1009.38 1009.61
1011.63 1011.73 1011.75 1010.50 1010.31 1010.72 1011.18 1012.39 1013.67 1012.90 1012.00 1011.25 1010.75 1011.06 1011.67 1011.43 1011.59 1012.35 1013.34 1013.75 1013.38 1012.94 1012.69 1012.50 1011.88 1010.93 1010.39 1010.33 1010.79 1011.62 1012.36 1012.71 1014.12 1015.20 1014.68 1013.81 1012.55 1011.78 1011.00 1010.29 1009.80 1009.85 1009.33 1009.03 1009.05
1012.40 1012.25 1011.32 1010.13 1010.08 1010.55 1011.78 1013.54 1013.62 1013.11 1012.42 1011.92 1012.37 1012.83 1013.38 1013.39 1013.33 1013.83 1014.70 1014.92 1014.38 1013.72 1013.15 1013.55 1013.27 1012.47 1011.80 1011.47 1011.87 1012.23 1013.43 1013.97 1014.83 1015.83 1015.77 1015.08 1014.36 1013.95 1012.87 1012.03 1011.19 1010.72 1010.10 1009.51 1009.11
1012.65 1012.48 1010.89 1010.27 1010.41 1011.84 1014.01 1014.49 1014.16 1013.57 1012.85 1012.90 1013.41 1013.95 1014.79 1014.94 1015.02 1015.58 1016.32 1015.56 1015.11 1014.46 1014.01 1014.27 1014.25 1014.45 1013.67 1015.02 1014.75 1014.20 1014.99 1015.60 1015.92 1016.23 1016.18 1016.28 1016.03 1014.91 1014.60 1013.83 1012.91 1011.98 1010.62 1009.59 1009.54
1013.31 1013.54 1011.16 1010.58 1012.17 1014.59 1015.53 1015.23 1015.10 1014.89 1014.29 1014.31 1014.58 1015.19 1015.83 1016.15 1016.67 1016.81 1017.07 1016.63 1015.87 1015.38 1015.45 1015.61 1016.08 1016.85 1016.91 1016.51 1016.25 1016.06 1016.83 1017.07 1017.20 1017.69 1017.27 1016.61 1016.72 1015.81 1015.35 1014.80 1014.12 1013.10 1012.07 1011.32 1010.99
1014.69 1014.49 1012.13 1011.73 1014.48 1016.09 1016.20 1016.11 1015.98 1015.52 1015.77 1015.77 1016.30 1016.47 1016.79 1017.55 1017.94 1017.82 1017.52 1017.09 1016.59 1016.36 1016.55 1016.45 1017.77 1018.39 1018.43 1017.72 1017.29 1017.57 1017.77 1017.75 1018.08 1018.11 1018.59 1017.92 1017.56 1016.44 1016.00 1015.59 1015.37 1014.65 1014.17 1013.55 1013.05
1015.53 1016.07 1015.43 1015.26 1016.53 1016.90 1017.24 1017.38 1017.03 1016.71 1016.87 1017.09 1017.61 1017.54 1017.86 1018.59 1018.54 1018.91 1018.63 1018.04 1017.66 1017.37 1017.19 1017.16 1019.09 1019.03 1018.89 1018.71 1018.75 1018.73 1018.57 1018.25 1018.45 1018.97 1019.40 1018.82 1018.36 1017.90 1017.76 1017.49 1017.01 1016.59 1016.07 1015.54 1015.07
1016.42 1018.14 1018.17 1018.32 1018.23 1018.16 1017.91 1018.13 1017.91 1017.81 1017.66 1017.73 1018.18 1018.76 1019.01 1019.60 1019.76 1019.91 1019.65 1019.23 1018.65 1018.45 1018.27 1018.79 1020.39 1020.35 1020.11 1019.63 1019.38 1019.33 1019.18 1018.83 1018.77 1018.99 1019.31 1019.35 1019.16 1019.07 1019.32 1019.19 1018.91 1018.52 1017.82 1017.20 1016.75
1017.48 1018.28 1018.57 1019.04 1018.93 1018.72 1018.73 1018.93 1018.56 1018.49 1018.43 1018.65 1018.97 1019.34 1019.38 1019.97 1020.29 1020.43 1020.43 1020.44 1020.46 1020.09 1020.15 1020.53 1021.48 1021.46 1021.57 1020.99 1020.41 1020.03 1019.61 1019.24 1018.98 1019.08 1019.48 1019.75 1019.89 1020.04 1020.11 1019.96 1019.69 1019.52 1019.14 1018.73 1018.42
1017.94 1018.17 1018.26 1019.57 1019.50 1019.34 1019.33 1019.01 1018.94 1018.85 1019.08 1019.05 1019.13 1019.49 1019.79 1019.97 1020.19 1020.46 1020.69 1021.28 1021.41 1021.59 1021.89 1022.00 1022.38 1022.78 1022.66 1021.98 1021.32 1021.34 1020.72 1020.16 1019.73 1019.84 1020.53 1020.95 1021.07 1021.15 1020.97 1021.04 1020.83 1020.46 1020.28 1019.94 1019.51
Wind_Speed
17 16 16 16 16 17 16 16 16 16 14 14 13 10 9 8 6 2 7 10 8 8 9 9 3 3 2 3 3 2 1 2 3 3 3 8 4 5 4 6 3 4 9 16 17
17 17 17 17 17 17 16 16 16 15 15 14 12 10 7 4 2 7 10 10 9 17 9 9 6 7 2 3 3 1 0 5 3 1 3 8 8 9 5 7 8 12 20 19 17
17 18 18 18 17 17 17 17 16 15 14 13 11 8 5 0 2 8 11 14 14 9 7 5 7 4 2 2 3 3 4 2 1 3 6 7 3 7 6 5 6 21 24 19 17
18 18 18 18 19 18 17 17 17 16 14 12 9 5 3 1 1 4 17 15 14 7 7 7 5 6 4 4 4 1 7 6 3 5 4 5 7 3 7 2 18 22 22 19 19
18 18 18 19 19 19 19 18 17 16 15 10 6 3 1 1 9 3 19 14 7 5 7 6 7 5 5 4 3 2 6 7 8 4 3 7 5 4 6 5 19 21 18 18 17
19 19 19 19 19 19 19 20 18 16 14 10 5 3 2 2 1 11 12 11 7 5 5 6 8 5 4 2 4 3 6 11 9 2 6 6 3 3 4 11 17 21 18 17 17
20 21 21 20 20 20 21 20 20 17 13 9 5 3 1 9 3 7 8 3 6 7 6 2 4 4 3 1 2 5 4 7 4 3 4 7 4 6 10 17 21 21 17 16 16
20 21 22 22 22 21 21 21 22 18 10 7 7 2 7 2 4 9 6 5 6 3 3 4 3 3 1 3 4 3 3 3 2 3 3 2 4 3 10 16 20 23 19 17 16
21 21 22 22 22 20 20 22 18 2 9 8 3 3 9 5 5 7 4 8 7 3 4 2 4 2 2 3 4 5 2 0 4 5 4 2 3 5 9 14 18 18 17 17 16
20 20 21 21 20 20 21 15 3 9 7 4 2 1 4 3 4 8 4 12 6 6 4 4 3 3 3 4 5 3 3 2 2 3 1 3 8 6 10 12 14 16 18 17 17
20 21 21 22 21 20 10 3 3 4 2 7 5 3 3 7 3 4 7 5 5 5 5 3 5 7 6 7 4 2 3 2 3 3 2 5 7 10 10 9 12 13 13 16 17
20 21 21 22 21 19 4 1 2 3 6 8 6 6 6 2 4 5 12 7 6 5 5 5 6 7 7 5 4 4 2 2 4 3 5 1 5 5 11 11 12 15 16 13 12
20 20 21 21 24 1 2 4 3 2 2 7 5 5 5 8 4 5 9 5 7 6 6 7 6 8 6 5 5 2 4 2 3 5 2 2 2 3 3 1 6 9 12 10 15
20 20 21 23 3 3 4 2 5 6 6 6 3 7 4 4 1 1 5 7 3 10 10 5 3 8 6 4 6 1 6 4 2 3 3 1 4 3 5 6 5 9 10 12 13
21 19 17 9 5 1 5 7 3 4 2 0 3 1 2 6 6 4 3 5 8 6 6 6 6 5 4 5 6 6 7 6 4 3 2 3 4 5 3 7 15 12 14 15 13
21 17 13 2 1 7 8 6 4 6 2 5 2 3 6 4 2 3 4 8 2 5 2 5 1 6 9 6 8 5 5 8 6 4 2 6 6 6 3 6 4 15 14 16 15
22 17 3 1 2 5 5 5 6 4 6 8 4 4 5 5 5 5 6 8 4 5 3 1 2 2 3 3 2 5 7 2 3 2 6 1 4 5 8 8 12 11 16 14 16
23 10 7 4 5 6 3 7 9 6 4 4 5 7 7 6 8 9 5 7 6 5 4 5 1 3 4 2 7 7 9 7 6 6 5 1 5 4 4 9 9 4 11 13 15
17 2 1 4 2 2 7 8 1 4 7 7 2 9 7 6 6 6 5 6 3 5 5 4 0 4 5 4 2 4 3 3 8 2 3 3 5 4 18 16 19 15 5 13 16
3 3 4 8 3 5 8 5 1 4 7 3 5 3 4 8 5 6 6 4 7 6 1 1 5 4 5 4 7 6 1 3 4 5 3 3 3 4 14 17 20 20 12 8 10
4 5 5 5 3 8 5 2 4 9 4 8 4 5 4 4 5 5 6 1 9 8 7 2 3 4 6 8 5 7 6 6 5 3 7 4 3 5 7 10 16 16 15 5 7
3 4 5 4 7 2 3 4 5 6 8 8 5 5 5 7 7 5 4 4 13 3 4 5 4 5 2 5 5 6 3 4 5 3 2 4 2 5 8 9 12 17 17 18 14
4 2 5 4 5 4 4 5 6 11 8 7 7 7 6 4 6 4 4 6 12 6 2 2 4 5 4 6 5 7 5 3 4 3 2 5 4 6 10 14 15 18 19 16 17
4 5 7 7 2 5 3 5 4 5 5 5 5 5 6 8 8 4 4 5 8 7 12 7 4 3 7 4 3 4 4 3 5 4 1 2 2 6 11 11 13 15 16 17 17
5 1 3 4 6 6 5 4 5 6 5 9 6 7 3 5 4 4 5 6 5 13 7 6 5 3 5 4 3 2 1 3 1 5 4 6 1 3 6 6 9 10 12 16 17
5 4 4 2 3 5 6 5 5 5 5 5 6 5 7 5 2 1 2 3 2 7 5 4 3 4 2 4 0 4 5 6 5 1 2 4 3 4 4 5 8 10 12 13 13
1 2 6 5 3 4 3 1 2 2 5 4 2 3 4 1 4 3 2 4 2 2 3 3 4 3 3 1 2 4 4 2 2 5 2 4 2 7 6 9 9 6 7 10 12
Wind_Direction
344 343 343 342 341 340 339 339 338 337 333 329 323 320 317 318 310 190 234 218 176 190 170 116 110 151 168 170 216 249 287 303 284 0 121 147 123 128 256 142 138 140 136 136 144
343 342 341 340 339 338 336 334 334 335 333 330 325 319 313 318 251 244 239 198 198 157 128 146 149 142 150 191 216 172 150 224 242 152 145 161 146 170 175 161 71 89 114 137 136
341 340 339 337 337 335 333 331 330 331 332 329 327 320 300 295 306 245 186 181 168 145 125 126 126 117 99 143 218 206 224 220 253 99 131 165 133 155 159 167 151 144 142 144 147
340 339 337 335 333 332 330 328 327 326 328 326 326 309 284 208 217 358 155 162 165 134 119 126 129 121 143 188 208 271 248 262 273 133 122 152 147 196 179 125 144 152 147 148 156
337 336 335 333 331 328 325 324 323 322 320 319 310 293 256 313 252 101 145 150 130 128 144 134 135 130 179 189 161 211 273 272 261 209 183 136 143 172 183 74 139 144 149 157 159
335 333 331 330 327 326 323 320 318 315 310 304 283 156 255 258 153 146 137 126 141 126 156 141 170 164 152 205 169 238 239 273 277 344 149 130 157 168 160 122 137 152 158 164 167
334 332 328 326 326 324 320 317 312 307 296 282 250 209 117 230 61 133 116 119 148 143 143 208 154 141 153 216 270 260 301 306 317 102 136 133 115 223 146 150 149 168 166 166 171
332 330 326 324 324 322 318 316 311 297 265 232 175 165 237 252 112 136 124 93 90 51 102 181 95 94 193 293 3 3 44 355 9 132 102 32 273 104 153 166 165 169 171 173 175
327 325 323 321 321 321 322 321 316 67 151 164 99 116 274 105 166 188 158 134 105 70 281 181 102 169 338 84 20 8 156 226 349 195 100 103 265 166 174 174 172 171 173 177 176
323 321 319 317 319 326 326 315 287 93 119 171 243 301 277 173 165 143 161 141 134 136 98 121 96 121 51 85 191 177 112 40 350 218 258 191 250 166 194 180 181 183 174 174 183
322 320 320 321 325 328 329 33 26 30 208 187 198 267 247 310 193 158 148 127 104 101 128 189 110 196 168 181 204 171 133 142 269 241 223 239 262 197 195 190 180 189 188 179 185
322 320 322 323 323 326 140 90 102 149 308 226 225 265 277 153 308 122 131 134 136 142 117 66 214 200 187 203 201 208 141 281 278 197 174 170 284 224 182 200 192 177 192 184 166
320 321 327 326 320 183 247 232 64 134 150 293 184 196 215 142 197 215 138 141 142 126 173 150 213 175 169 184 177 199 153 190 225 326 56 168 4 131 177 155 188 191 193 194 181
321 325 334 328 325 308 252 273 309 185 57 281 244 258 160 165 119 173 180 141 144 169 158 188 176 150 160 191 139 219 199 173 249 50 260 25 281 283 165 208 227 195 182 188 190
324 329 327 323 298 297 303 332 308 56 39 199 192 80 126 135 145 4 358 50 147 143 111 227 161 157 144 196 163 207 173 175 177 189 16 335 80 259 140 231 228 213 199 199 196
326 321 329 108 222 248 303 304 57 40 8 344 50 136 89 23 60 75 64 50 94 82 48 184 143 142 186 207 184 135 106 38 43 88 22 226 131 291 223 263 297 211 211 198 197
329 324 291 189 248 306 313 44 45 70 328 340 346 53 88 29 54 48 40 36 56 93 165 45 165 253 138 149 88 94 82 346 32 55 207 125 101 222 289 297 270 203 213 205 193
329 327 182 224 269 330 47 57 61 320 313 322 348 55 74 3 12 19 67 31 10 50 87 142 130 359 5 159 184 181 153 157 171 175 202 30 208 206 336 301 358 280 204 199 197
323 351 274 261 213 138 69 58 202 319 313 326 5 58 17 6 104 77 53 13 346 1 122 128 84 320 39 23 91 189 143 189 105 20 81 251 322 326 351 356 356 1 217 200 201
41 11 304 331 149 64 72 107 41 333 317 15 87 51 67 352 67 68 24 346 330 20 163 19 100 8 317 28 34 93 57 89 12 132 180 0 40 312 343 339 339 348 332 250 203
45 43 272 353 48 48 85 65 26 344 30 27 36 65 73 25 49 63 355 9 0 329 46 50 71 331 35 14 291 13 12 24 111 113 154 136 279 339 319 325 333 349 346 279 185
70 43 314 7 49 35 48 350 12 338 6 34 76 58 61 32 40 80 89 9 336 310 42 356 103 63 66 279 40 71 88 117 122 213 51 116 263 13 344 341 359 5 34 44 47
75 319 326 38 80 14 356 14 47 12 18 26 34 31 34 56 90 52 52 337 359 40 47 18 24 88 356 334 5 52 350 85 104 77 29 116 224 2 3 9 14 31 31 37 44
75 37 338 36 36 93 51 14 34 25 55 50 37 51 47 31 14 78 27 343 338 359 38 80 74 141 170 147 164 66 357 19 97 80 177 102 320 346 360 11 3 22 29 36 42
32 92 182 352 2 48 59 26 21 16 19 26 39 46 55 58 37 47 6 343 346 355 24 78 102 57 46 70 79 108 72 344 80 158 138 206 163 69 25 18 8 3 25 30 27
101 104 26 56 352 36 15 4 39 1 35 358 74 42 46 87 131 158 30 25 9 337 36 1 152 145 156 19 63 178 254 232 265 232 168 169 202 357 62 13 30 16 14 21 16
342 45 100 311 13 68 317 83 28 82 33 50 30 94 50 15 200 217 181 69 46 3 23 58 117 85 186 277 146 38 317 337 284 54 25 181 332 360 355 4 347 352 14 11 1